Time,TemperatureF,DewpointF,PressureIn,WindDirection,WindDirectionDegrees,WindSpeedMPH,WindSpeedGustMPH,Humidity,HourlyPrecipIn,Conditions,Clouds,dailyrainin,SolarRadiationWatts/m^2,SoftwareType,DateUTC
2014-04-24 00:01:00,41.9,34.2,30.07,NE,43,3.0,4.0,74,0.00,,,0.00,0,HR-IXPWINDi_r2_v1.2.,2014-04-24 04:01:00,
2014-04-24 00:06:00,41.5,34.1,30.06,NE,43,4.0,5.0,75,0.00,,,0.00,0,HR-IXPWINDi_r2_v1.2.,2014-04-24 04:06:00,
2014-04-24 00:11:00,41.3,34.3,30.07,NE,43,3.0,5.0,76,0.00,,,0.00,0,HR-IXPWINDi_r2_v1.2.,2014-04-24 04:11:00,
2014-04-24 00:16:00,41.1,34.4,30.07,NE,43,5.0,6.0,77,0.00,,,0.00,0,HR-IXPWINDi_r2_v1.2.,2014-04-24 04:16:00,
2014-04-24 00:21:00,41.1,34.4,30.07,NE,43,5.0,6.0,77,0.00,,,0.00,0,HR-IXPWINDi_r2_v1.2.,2014-04-24 04:21:00,
2014-04-24 00:26:00,41.1,34.4,30.07,NE,44,3.0,6.0,77,0.00,,,0.00,0,HR-IXPWINDi_r2_v1.2.,2014-04-24 04:26:00,
2014-04-24 00:31:00,41.2,34.5,30.06,NE,44,4.0,6.0,77,0.00,,,0.00,0,HR-IXPWINDi_r2_v1.2.,2014-04-24 04:31:00,
2014-04-24 00:36:00,41.2,34.5,30.06,NE,44,3.0,6.0,77,0.00,,,0.00,0,HR-IXPWINDi_r2_v1.2.,2014-04-24 04:36:00,
2014-04-24 00:42:00,41.0,34.3,30.07,NE,44,3.0,5.0,77,0.00,,,0.00,0,HR-IXPWINDi_r2_v1.2.,2014-04-24 04:42:00,
2014-04-24 00:47:00,40.8,34.1,30.07,NE,44,0.0,4.0,77,0.00,,,0.00,0,HR-IXPWINDi_r2_v1.2.,2014-04-24 04:47:00,
2014-04-24 00:52:00,40.6,33.9,30.07,NE,44,0.0,3.0,77,0.00,,,0.00,0,HR-IXPWINDi_r2_v1.2.,2014-04-24 04:52:00,
2014-04-24 00:57:00,40.3,34.0,30.07,NE,44,0.0,3.0,78,0.00,,,0.00,0,HR-IXPWINDi_r2_v1.2.,2014-04-24 04:57:00,
2014-04-24 01:02:00,40.3,34.3,30.07,NE,44,1.0,3.0,79,0.00,,,0.00,0,HR-IXPWINDi_r2_v1.2.,2014-04-24 05:02:00,
2014-04-24 01:07:00,40.5,34.8,30.07,NE,44,0.0,3.0,80,0.00,,,0.00,0,HR-IXPWINDi_r2_v1.2.,2014-04-24 05:07:00,
2014-04-24 01:13:00,40.9,35.2,30.07,NE,44,1.0,3.0,80,0.00,,,0.00,0,HR-IXPWINDi_r2_v1.2.,2014-04-24 05:13:00,
2014-04-24 01:18:00,41.6,35.2,30.07,NE,44,1.0,3.0,78,0.00,,,0.00,0,HR-IXPWINDi_r2_v1.2.,2014-04-24 05:18:00,
2014-04-24 01:23:00,42.0,35.6,30.07,NE,44,1.0,2.0,78,0.00,,,0.00,0,HR-IXPWINDi_r2_v1.2.,2014-04-24 05:23:00,
2014-04-24 01:28:00,42.2,35.8,30.07,NE,44,1.0,2.0,78,0.00,,,0.00,0,HR-IXPWINDi_r2_v1.2.,2014-04-24 05:28:00,
2014-04-24 01:33:00,42.4,35.7,30.08,NE,52,1.0,3.0,77,0.00,,,0.00,0,HR-IXPWINDi_r2_v1.2.,2014-04-24 05:33:00,
2014-04-24 01:38:00,42.8,35.7,30.07,ENE,65,2.0,4.0,76,0.00,,,0.00,0,HR-IXPWINDi_r2_v1.2.,2014-04-24 05:38:00,
2014-04-24 01:43:00,43.0,35.6,30.07,ENE,69,2.0,4.0,75,0.00,,,0.00,0,HR-IXPWINDi_r2_v1.2.,2014-04-24 05:43:00,
2014-04-24 01:48:00,43.2,35.4,30.07,ENE,72,2.0,4.0,74,0.00,,,0.00,0,HR-IXPWINDi_r2_v1.2.,2014-04-24 05:48:00,
2014-04-24 01:54:00,43.3,35.5,30.07,ENE,72,1.0,4.0,74,0.00,,,0.00,0,HR-IXPWINDi_r2_v1.2.,2014-04-24 05:54:00,
2014-04-24 01:59:00,43.3,35.5,30.07,ENE,78,1.0,5.0,74,0.00,,,0.00,0,HR-IXPWINDi_r2_v1.2.,2014-04-24 05:59:00,
2014-04-24 02:05:00,43.4,35.6,30.07,East,82,1.0,7.0,74,0.00,,,0.00,0,HR-IXPWINDi_r2_v1.2.,2014-04-24 06:05:00,
2014-04-24 02:10:00,43.5,35.4,30.07,East,87,2.0,7.0,73,0.00,,,0.00,0,HR-IXPWINDi_r2_v1.2.,2014-04-24 06:10:00,
2014-04-24 02:15:00,43.5,35.7,30.07,East,94,2.0,6.0,74,0.00,,,0.00,0,HR-IXPWINDi_r2_v1.2.,2014-04-24 06:15:00,
2014-04-24 02:20:00,43.5,35.4,30.07,East,94,2.0,6.0,73,0.00,,,0.00,0,HR-IXPWINDi_r2_v1.2.,2014-04-24 06:20:00,
2014-04-24 02:25:00,43.5,35.0,30.07,East,96,2.0,6.0,72,0.00,,,0.00,0,HR-IXPWINDi_r2_v1.2.,2014-04-24 06:25:00,
2014-04-24 02:31:00,43.5,35.4,30.07,East,96,3.0,6.0,73,0.00,,,0.00,0,HR-IXPWINDi_r2_v1.2.,2014-04-24 06:31:00,
2014-04-24 02:36:00,43.4,35.6,30.06,East,96,0.0,5.0,74,0.00,,,0.00,0,HR-IXPWINDi_r2_v1.2.,2014-04-24 06:36:00,
2014-04-24 02:41:00,43.4,35.3,30.06,East,99,3.0,7.0,73,0.00,,,0.00,0,HR-IXPWINDi_r2_v1.2.,2014-04-24 06:41:00,
2014-04-24 02:46:00,43.5,35.4,30.05,ESE,102,2.0,7.0,73,0.00,,,0.00,0,HR-IXPWINDi_r2_v1.2.,2014-04-24 06:46:00,
2014-04-24 02:52:00,43.5,35.0,30.05,East,99,7.0,7.0,72,0.00,,,0.00,0,HR-IXPWINDi_r2_v1.2.,2014-04-24 06:52:00,
2014-04-24 02:57:00,43.5,35.0,30.05,East,101,5.0,8.0,72,0.00,,,0.00,0,HR-IXPWINDi_r2_v1.2.,2014-04-24 06:57:00,
2014-04-24 03:02:00,43.5,35.0,30.05,East,101,2.0,8.0,72,0.00,,,0.00,0,HR-IXPWINDi_r2_v1.2.,2014-04-24 07:02:00,
2014-04-24 03:07:00,43.6,35.1,30.05,East,96,2.0,7.0,72,0.00,,,0.00,0,HR-IXPWINDi_r2_v1.2.,2014-04-24 07:07:00,
2014-04-24 03:12:00,43.5,35.0,30.05,East,90,6.0,9.0,72,0.00,,,0.00,0,HR-IXPWINDi_r2_v1.2.,2014-04-24 07:12:00,
2014-04-24 03:17:00,43.5,34.7,30.05,East,84,9.0,11.0,71,0.00,,,0.00,0,HR-IXPWINDi_r2_v1.2.,2014-04-24 07:17:00,
2014-04-24 03:23:00,43.5,34.7,30.05,East,93,5.0,11.0,71,0.00,,,0.00,0,HR-IXPWINDi_r2_v1.2.,2014-04-24 07:23:00,
2014-04-24 03:28:00,43.5,34.7,30.05,East,86,6.0,11.0,71,0.00,,,0.00,0,HR-IXPWINDi_r2_v1.2.,2014-04-24 07:28:00,
2014-04-24 03:33:00,43.4,34.6,30.05,East,89,2.0,9.0,71,0.00,,,0.00,0,HR-IXPWINDi_r2_v1.2.,2014-04-24 07:33:00,
2014-04-24 03:38:00,43.4,34.2,30.05,East,90,3.0,9.0,70,0.00,,,0.00,0,HR-IXPWINDi_r2_v1.2.,2014-04-24 07:38:00,
2014-04-24 03:43:00,43.4,34.2,30.05,East,90,5.0,8.0,70,0.00,,,0.00,0,HR-IXPWINDi_r2_v1.2.,2014-04-24 07:43:00,
2014-04-24 03:48:00,43.4,34.2,30.05,East,90,8.0,8.0,70,0.00,,,0.00,0,HR-IXPWINDi_r2_v1.2.,2014-04-24 07:48:00,
2014-04-24 03:53:00,43.3,34.1,30.05,East,82,5.0,9.0,70,0.00,,,0.00,0,HR-IXPWINDi_r2_v1.2.,2014-04-24 07:53:00,
2014-04-24 03:59:00,43.3,34.1,30.05,East,84,3.0,9.0,70,0.00,,,0.00,0,HR-IXPWINDi_r2_v1.2.,2014-04-24 07:59:00,
2014-04-24 04:04:00,43.3,34.1,30.05,ENE,72,7.0,9.0,70,0.00,,,0.00,0,HR-IXPWINDi_r2_v1.2.,2014-04-24 08:04:00,
2014-04-24 04:09:00,43.2,34.0,30.06,ENE,77,5.0,9.0,70,0.00,,,0.00,0,HR-IXPWINDi_r2_v1.2.,2014-04-24 08:09:00,
2014-04-24 04:14:00,43.2,34.0,30.06,East,79,2.0,8.0,70,0.00,,,0.00,0,HR-IXPWINDi_r2_v1.2.,2014-04-24 08:14:00,
2014-04-24 04:20:00,43.2,34.0,30.07,East,81,3.0,8.0,70,0.00,,,0.00,0,HR-IXPWINDi_r2_v1.2.,2014-04-24 08:20:00,
2014-04-24 04:25:00,43.3,34.1,30.07,East,82,6.0,7.0,70,0.00,,,0.00,0,HR-IXPWINDi_r2_v1.2.,2014-04-24 08:25:00,
2014-04-24 04:30:00,43.3,34.1,30.06,East,86,3.0,8.0,70,0.00,,,0.00,0,HR-IXPWINDi_r2_v1.2.,2014-04-24 08:30:00,
2014-04-24 04:35:00,43.3,34.1,30.06,East,89,7.0,8.0,70,0.00,,,0.00,0,HR-IXPWINDi_r2_v1.2.,2014-04-24 08:35:00,
2014-04-24 04:40:00,43.2,34.0,30.06,East,84,3.0,8.0,70,0.00,,,0.00,0,HR-IXPWINDi_r2_v1.2.,2014-04-24 08:40:00,
2014-04-24 04:46:00,43.2,33.7,30.06,East,83,6.0,9.0,69,0.00,,,0.00,0,HR-IXPWINDi_r2_v1.2.,2014-04-24 08:46:00,
2014-04-24 04:51:00,43.2,33.7,30.07,ENE,76,3.0,9.0,69,0.00,,,0.00,0,HR-IXPWINDi_r2_v1.2.,2014-04-24 08:51:00,
2014-04-24 04:56:00,43.2,34.0,30.07,ENE,77,4.0,8.0,70,0.00,,,0.00,0,HR-IXPWINDi_r2_v1.2.,2014-04-24 08:56:00,